Location: El Descanso
(32.5634°N, 116.5969°W)
Time: 03:34:09
(UTC+00:00)

Daily predictions for brighter satellites

Satellite Brightness Start Highest point End
(mag) Time Altitude Azimuth Time Altitude Azimuth Time Altitude Azimuth
deb Kosmos-1763 4.0 03:12:50 10° S 03:16:14 53° ESE 03:19:40 10° NNE
Cosmos 1758 Rocket 3.5 03:12:15 10° S 03:16:33 81° E 03:20:51 10° N
Cosmos 1125 Rocket 4.5 03:19:13 10° N 03:23:55 31° ENE 03:28:34 10° SE
Okean-O 3.7 03:20:51 10° S 03:25:06 47° W 03:29:23 10° NNW
Cosmos 1869 4.0 03:25:16 10° NNE 03:28:47 33° E 03:32:15 10° SE
Cosmos 1825 3.0 03:25:32 10° SSE 03:28:49 30° E 03:32:08 10° NNE
Cosmos 2058 4.2 03:25:48 10° SE 03:28:58 21° E 03:32:09 10° NE
OBJECT-B 0.7 03:28:50 10° SSE 03:31:59 65° ENE 03:35:09 10° N
NOSS 3-2 (A) 4.2 03:24:11 10° NNW 03:32:11 80° ENE 03:40:59 10° SSE
USA 306 4.2 03:29:40 10° NNW 03:33:25 29° NE 03:36:55 11° E
SAR-Lupe-1 4.0 03:30:08 10° NNE 03:33:43 77° E 03:37:16 10° S
COSMOS 2406 3.4 03:28:38 10° S 03:34:01 48° ESE 03:39:29 10° NNE
SAR-Lupe-4 3.5 03:30:35 10° NNE 03:34:09 66° ESE 03:37:41 10° S
Cosmos 405 Rocket 2.9 03:31:59 10° S 03:35:48 78° W 03:39:44 10° N
SL-19 R/B 3.9 03:33:38 10° SSE 03:36:41 58° ENE 03:40:08 10° N
Cosmos 2034 Rocket 4.4 03:30:56 10° N 03:37:07 71° W 03:43:21 10° S
SJ-6B 2.7 03:33:33 10° SSE 03:37:15 65° ENE 03:40:57 10° N
Meteor 1-27 4.3 03:34:20 10° N 03:40:06 77° E 03:45:55 10° SSE
NOSS 3-4 (A) 3.8 03:36:54 10° SW 03:42:36 64° WNW 03:48:35 10° NNE
NOSS 3-4 (C) 3.8 03:37:00 10° SW 03:42:42 65° WNW 03:48:41 10° NNE
OAO 1 Rocket 4.4 03:38:22 10° WSW 03:43:44 87° SSE 03:49:05 10° ENE
Atlas Centaur 2 2.3 03:42:06 10° SW 03:45:29 25° SSE 03:47:13 18° ESE
Cosmos 1437 Rocket 3.3 03:43:14 10° N 03:46:52 39° E 03:49:36 16° SE
USA 32 4.2 03:41:53 10° N 03:47:01 53° E 03:52:06 10° SSE
BREEZE M DEB (TANK) 2.8 03:46:02 10° S 03:47:47 24° ESE 03:51:50 10° ENE
Resurs 01 Rocket 2.8 03:46:24 16° ESE 03:48:54 26° ENE 03:52:35 10° NNE
Cosmos 1408 3.1 03:45:25 10° SSW 03:49:01 62° W 03:52:38 10° N
Cosmos 1656 4.2 03:43:43 10° N 03:49:03 43° ENE 03:53:02 17° SE
Cosmos 1437 4.4 03:48:54 10° NE 03:50:30 14° ENE 03:50:30 14° ENE
ATLAS 2AS CENTAUR R/B 3.0 03:43:16 10° SSW 03:51:05 73° ESE 03:58:55 10° NNE
Cosmos 1980 Rocket 4.3 03:49:45 10° NE 03:51:07 11° NE 03:52:30 10° ENE
RESURS DK-1 3.3 03:53:35 16° SSE 03:55:56 26° ESE 03:59:24 10° NE
Cosmos 1825 Rocket 4.5 03:51:59 10° SSW 03:56:12 50° W 04:00:26 10° N
NOSS 3-2 (C) 4.2 03:51:20 10° NNW 03:59:18 73° ENE 04:06:18 18° SE
Cosmos-2242 3.5 03:55:57 10° NNW 04:00:10 61° W 04:04:20 10° S
OAO 3 Copernicus 4.3 03:55:26 10° WSW 04:00:28 85° NNW 04:05:30 10° ENE
H-2A R/B 2.1 03:50:08 10° WSW 04:00:41 46° S 04:02:15 25° SE
Cosmos 1633 4.0 04:03:09 20° E 04:03:09 20° E 04:05:47 10° NE
Cosmos 44 Rocket 3.4 04:06:32 10° SSW 04:11:40 88° WNW 04:16:55 10° NNE
ERS-2 2.9 04:13:14 10° N 04:16:48 53° WNW 04:20:19 10° SSW
USA 267 3.4 04:11:05 10° NE 04:17:21 48° SE 04:23:36 10° SSW
Helios 1A Rocket 4.3 04:14:02 10° SSW 04:17:43 36° W 04:21:28 10° NNW
CENTAUR R/B 3.4 04:09:23 10° NNW 04:17:57 76° WSW 04:25:02 18° SSE
Sakura Rocket 4.3 04:10:43 10° W 04:19:20 64° S 04:23:06 27° ESE
Meteor 2-2 Rocket 4.3 04:14:06 10° N 04:19:50 62° E 04:23:03 26° SSE
Ariane Rocket 3.0 04:17:44 18° S 04:21:34 81° WSW 04:26:40 10° NNW
Cosmos 1634 Rocket 4.3 04:15:55 10° NNW 04:22:08 68° W 04:28:17 10° S
IRS-1A Rocket 4.4 04:21:09 15° S 04:25:45 72° WSW 04:31:16 10° NNW
Cosmos 1242 Rocket 2.4 04:23:14 10° N 04:26:50 88° ENE 04:27:49 46° S
SEDSat Delta rocket 2.7 04:24:53 10° WSW 04:28:53 66° S 04:29:54 46° ESE
OAO 2 Rocket 3.4 04:24:56 10° WNW 04:29:57 71° N 04:32:24 30° E
CZ-2C R/B 3.7 04:25:51 10° NNE 04:30:19 58° E 04:31:53 36° SSE
Cosmos 2221 2.6 04:27:54 10° N 04:32:08 58° E 04:33:03 46° SE
USA 307 2.8 04:28:25 10° NW 04:32:41 88° SW 04:33:45 50° SE
USA 238 DEB 4.3 04:25:36 10° NW 04:32:52 59° WSW 04:38:14 20° S
Cosmos 2180 Rocket 4.4 04:26:47 10° N 04:32:55 67° E 04:35:58 31° SSE
USA 238 4.3 04:25:42 10° NW 04:32:58 59° WSW 04:38:19 20° S
IGS 5A 3.6 04:40:41 39° S 04:42:07 69° W 04:46:15 10° NNW
Hubble Space Telescope 1.3 04:39:08 10° WSW 04:42:35 43° SSW 04:42:35 43° SSW
Terra 3.7 04:43:36 16° ENE 04:43:36 16° ENE 04:46:13 10° NNE
Cosmos 1606 2.9 04:42:53 10° N 04:46:13 54° NE 04:46:13 54° NE
USA 305 3.2 04:45:14 10° NW 04:49:18 51° SW 04:49:45 48° SSW
USA 308 3.1 04:45:20 10° NW 04:49:31 58° SW 04:49:57 55° SSW
Cosmos 1697 Rocket 2.6 04:43:59 10° NNW 04:49:39 74° ENE 04:51:14 48° SE
Cosmos 2082 Rocket 2.5 04:45:07 10° SSW 04:50:40 66° WNW 04:56:18 10° NNE
SPOT 3 Rocket 3.5 04:50:07 40° S 04:52:03 81° WSW 04:57:18 10° NNW
Cosmos 2151 3.3 05:00:21 54° NE 05:00:21 54° NE 05:03:51 10° NNE
Cosmos 1842 Rocket 4.4 05:08:38 10° NNW 05:12:55 46° W 05:13:42 41° WSW
USA 306 4.3 05:09:33 10° WNW 05:12:59 29° WSW 05:12:59 29° WSW
GP-B 3.9 05:09:09 10° NNE 05:12:19 41° NE 05:12:19 41° NE
Cosmos 1092 Rocket 3.8 05:13:57 58° SSE 05:15:12 78° E 05:21:29 10° N
Meteor 2-3 Rocket 3.5 05:18:42 75° SE 05:19:04 79° E 05:24:45 10° N
ERS-1 Rocket 3.2 05:20:52 57° NE 05:20:52 57° NE 05:25:23 10° N
Spot 2 Rocket 3.4 05:21:57 86° SSW 05:22:02 88° WSW 05:27:10 10° NNW
Cosmos 2369 3.6 05:19:12 10° NNW 05:24:51 78° WSW 05:25:15 74° SSW
Resurs 01 Rocket 3.6 05:23:57 19° WSW 05:25:18 22° W 05:28:45 10° NW
Cosmos 2026 Rocket 3.9 05:33:39 73° S 05:34:21 88° E 05:40:43 10° N
Cosmos 1980 Rocket 2.1 05:30:10 10° NNW 05:35:38 85° NW 05:35:38 85° NW
Cosmos 158 Rocket 4.4 05:37:56 55° W 05:38:20 57° WNW 05:43:27 10° N
Cosmos 2322 Rocket 4.0 05:39:16 10° NNE 05:42:47 19° NE 05:42:47 19° NE
ARIANE 5 R/B 4.0 05:53:39 37° WNW 05:53:39 37° WNW 05:56:52 10° NNW
USA 267 4.4 05:54:10 10° NNE 06:00:12 41° NW 06:06:14 10° WSW
SPOT 5 4.3 06:02:36 31° NW 06:02:36 31° NW 06:05:10 10° NNW
ATLAS 3B R/B 2.7 06:00:00 10° NNW 06:07:15 83° ENE 06:07:15 83° ENE
SL-16 R/B 3.3 06:03:19 10° N 06:07:23 37° NNE 06:07:23 37° NNE
Cosmos 1553 Rocket 4.3 06:13:17 10° N 06:18:04 58° N 06:18:04 58° N
Terra 3.5 06:22:29 30° NW 06:22:29 30° NW 06:25:15 10° NNW
USA 234 4.4 06:28:20 32° ENE 06:29:30 34° NE 06:35:15 10° NNW
Cosmos 2333 Rocket 4.2 06:48:43 10° NNE 06:51:37 19° NE 06:51:37 19° NE
Cosmos 2360 Rocket 3.7 06:53:16 10° N 06:56:30 32° N 06:56:30 32° N
Cosmos 2322 Rocket 4.0 07:22:09 10° NNW 07:24:34 25° NW 07:24:34 25° NW
COSMOS 2428 4.4 07:45:10 10° N 07:48:18 29° NNE 07:48:18 29° NNE
Cosmos 2219 Rocket 3.9 07:50:10 10° NNW 07:52:56 29° N 07:52:56 29° N
COSMOS 2455 4.4 08:10:42 29° NNW 08:10:42 29° NNW 08:14:40 10° N
Lacrosse 5 4.1 08:37:07 20° NE 08:37:07 20° NE 08:38:40 10° NE
ATLAS 5 CENTAUR R/B 3.6 08:30:42 10° NNW 08:35:47 38° NE 08:35:47 38° NE
Cosmos 2333 Rocket 4.3 08:31:55 10° NW 08:33:36 19° NW 08:33:36 19° NW
SL-16 R/B 4.0 08:45:14 28° ENE 08:45:50 28° ENE 08:50:57 10° N
Resurs 1-4 Rocket 3.9 08:41:49 10° NNE 08:44:30 26° NE 08:44:30 26° NE
Cosmos 2297 Rocket 3.5 09:00:40 36° N 09:00:40 36° N 09:04:08 10° NNE
Cosmos 2227 Rocket 3.3 09:11:21 39° N 09:11:21 39° N 09:14:59 10° NNE
Cosmos 2237 Rocket 3.3 09:04:35 10° NNW 09:08:08 39° N 09:08:08 39° N
ADEOS Rocket 4.0 09:16:08 34° ENE 09:16:25 35° ENE 09:21:22 10° N
USA 229 DEB 4.4 09:12:23 10° NW 09:17:56 51° WNW 09:17:56 51° WNW
USA 229 4.3 09:12:29 10° NW 09:18:05 52° WNW 09:18:05 52° WNW
CZ-2D R/B 3.0 09:19:57 10° NNE 09:23:40 46° N 09:23:40 46° N
ADEOS II 3.3 09:21:53 10° NNE 09:25:41 37° ENE 09:25:41 37° ENE
Cosmos 2181 Rocket 4.3 09:22:58 10° N 09:28:07 62° N 09:28:07 62° N
SL-16 R/B 3.5 09:28:58 10° N 09:34:08 35° ENE 09:35:34 31° E
Cosmos 2263 Rocket 3.5 09:36:12 31° E 09:36:12 31° E 09:40:44 10° NE
ATLAS 2A CENTAUR R/B 3.8 09:51:02 62° S 09:51:35 63° SSE 10:18:41 10° E
Helios 1B rocket 4.4 09:49:25 10° N 09:51:15 25° N 09:51:15 25° N
Nadezhda 3 Rocket 4.2 10:03:18 10° N 10:09:39 69° E 10:11:14 50° SE
Cosmos 2327 Rocket 4.3 10:10:32 80° WSW 10:10:46 81° W 10:16:57 10° N
CZ-3B R/B 4.2 10:12:02 43° S 10:13:19 44° S 10:20:21 10° ESE
Cosmos 2344 3.4 10:14:50 59° SSW 10:16:30 89° WNW 10:24:00 10° NNE
CBERS-1 4.0 10:11:40 10° NNE 10:16:47 75° E 10:16:47 75° E
Lacrosse 5 3.9 10:16:19 16° NW 10:17:04 17° NW 10:20:19 10° N
IDEFIX/ARIANE 42P 2.6 10:11:56 10° NNE 10:17:07 72° ESE 10:17:13 72° ESE
Cosmos 1378 Rocket 4.2 10:13:00 10° N 10:16:54 51° ENE 10:16:54 51° ENE
Cosmos 1908 Rocket 4.1 10:19:31 55° NE 10:19:31 55° NE 10:23:12 10° NNE
Cosmos 1356 Rocket 4.3 10:20:55 45° NNE 10:20:55 45° NNE 10:23:46 10° N
ATLAS 5 CENTAUR R/B 4.1 10:15:20 10° NW 10:17:13 19° WNW 10:17:13 19° WNW
Resurs 1-4 Rocket 3.8 10:22:23 10° NNW 10:25:34 20° WNW 10:25:34 20° WNW
SL-16 R/B 3.3 10:30:20 34° WNW 10:30:20 34° WNW 10:34:51 10° NNW
DELTA 2 DEB (DPAF) 4.2 10:30:51 74° E 10:30:53 74° ENE 10:35:18 10° N
Cosmos 1190 Rocket 3.8 10:31:49 78° SSW 10:32:11 88° WNW 10:37:30 10° NNE
USA 215 3.5 10:26:57 10° NE 10:33:23 59° SE 10:35:19 43° S
Centaur AC-112 4.0 10:33:52 41° SSE 10:34:24 42° SSE 10:48:39 10° E
Cosmos 1140 Rocket 3.5 10:34:56 64° W 10:35:03 64° WNW 10:40:16 10° N
Cosmos 2154 Rocket 4.3 10:35:29 45° W 10:35:46 45° W 10:41:41 10° N
ASTRO E2 3.7 10:40:22 39° ESE 10:40:22 39° ESE 10:43:04 10° E
CZ-4C R/B 4.2 10:40:07 36° ESE 10:41:19 50° ENE 10:45:21 10° N
Okean 2 3.7 10:41:40 10° NNW 10:45:10 58° NW 10:45:10 58° NW
Cosmos 1954 Rocket 4.1 10:44:56 50° S 10:46:18 75° ESE 10:51:38 10° NNE
Meteor 1-21 4.2 10:40:36 10° NNW 10:46:22 75° W 10:48:10 46° S
CZ-4B R/B 4.0 10:44:04 10° NNE 10:48:46 51° E 10:50:38 32° SSE
Cosmos 1844 Rocket 4.5 10:45:26 12° SSE 10:49:26 26° ESE 10:54:01 10° NE
MSX 3.7 10:45:46 10° N 10:51:29 75° WNW 10:53:13 46° SSW
ARIANE 5 R/B 2.6 10:48:44 10° NNE 10:53:55 74° ESE 10:56:00 37° S
CZ-2D R/B 4.0 10:53:56 10° NNE 10:57:52 52° E 10:59:15 35° SSE
Cosmos 1782 Rocket 3.4 11:00:42 59° SSW 11:01:26 79° W 11:05:48 10° N
ADEOS Rocket 4.1 11:03:05 22° W 11:03:05 22° W 11:06:23 10° NW
Cosmos 1805 3.8 11:01:49 35° SSE 11:03:08 55° E 11:06:56 10° NNE
Cosmos 864 Rocket 4.4 11:02:16 27° S 11:05:55 89° E 11:12:13 10° N
Cosmos 1959 Rocket 4.4 11:02:30 28° S 11:05:56 88° W 11:12:07 10° N
ADEOS II 3.6 11:02:32 10° NNW 11:06:11 19° WNW 11:06:36 19° WNW
ATLAS CENTAUR R/B 1.9 11:09:58 36° WNW 11:10:05 36° WNW 11:13:40 10° N
IUS-17 SRM-1 3.7 11:11:22 38° SSW 11:11:22 38° SSW 11:13:59 10° SE
SL-8 Rocket 4.0 11:09:37 32° SSW 11:12:26 62° W 11:18:32 10° N
KORONAS-FOTON 4.0 11:09:19 10° N 11:13:14 72° E 11:15:43 21° SSE
Cosmos 676 Rocket 4.1 11:12:58 37° SW 11:14:52 59° WNW 11:20:09 10° N
Cosmos 2366 rocket 4.0 11:11:29 26° SSW 11:15:14 74° W 11:21:36 10° N
IRS-1C 4.3 11:10:28 10° N 11:15:38 53° WNW 11:17:43 33° SW
SL-16 R/B 3.3 11:13:28 10° NW 11:17:20 24° W 11:17:20 24° W
Delta 142 4.2 11:16:04 31° WSW 11:18:43 53° S 11:23:35 10° ESE
Cosmos 2263 Rocket 3.3 11:17:54 24° W 11:19:36 29° WNW 11:24:29 10° N
Cosmos 1707 3.7 11:17:20 10° NNW 11:20:12 29° WNW 11:20:12 29° WNW
PAYLOAD A 4.1 11:21:50 10° NNE 11:27:16 88° E 11:31:26 17° SSW
Spot 1 4.1 11:25:21 27° SSW 11:27:21 52° WSW 11:31:22 10° NNW
Cosmos 1733 3.1 11:27:50 30° SSW 11:29:36 74° W 11:33:26 10° N
ALOS 3.0 11:25:42 10° NNE 11:30:15 51° E 11:34:46 10° S
GEOS 3 Rocket 4.2 11:25:25 10° SE 11:30:41 61° NE 11:35:56 10° NNW
Cosmos 1766 3.2 11:29:44 21° S 11:32:12 85° E 11:36:07 10° N
Cosmos 1741 Rocket 4.2 11:29:58 15° S 11:34:21 70° ESE 11:39:36 10° NNE
SL-08 R/B 3.3 11:30:52 10° S 11:35:45 72° WSW 11:40:43 10° NNW
Delta 128 3.9 11:34:57 27° WSW 11:37:06 49° S 11:41:55 10° ESE
CZ-4C R/B 3.1 11:29:18 10° NNW 11:37:08 79° WSW 11:45:47 10° SSE
Meteor 2-20 4.4 11:33:35 10° NNW 11:39:39 64° W 11:45:43 10° S
Cosmos 2218 Rocket 4.5 11:37:15 21° SW 11:41:11 43° W 11:47:11 10° N
Cosmos 1300 Rocket 3.5 11:38:50 20° SSW 11:41:44 64° W 11:46:03 10° N
USA 290 4.3 11:40:52 10° N 11:43:48 31° ENE 11:46:42 10° SE
Meteor 2-20 Rocket 4.4 11:38:13 10° N 11:44:23 83° W 11:50:32 10° S
Meteor 1-15 Rocket 4.4 11:43:12 13° SSW 11:48:29 64° W 11:54:20 10° N
Cosmos 1484 Rocket 3.7 11:46:57 10° NNE 11:50:49 50° E 11:54:41 10° S
Cosmos 1340 3.3 11:48:44 10° NNW 11:52:09 34° W 11:54:38 16° SSW
Cosmos 1975 Rocket 3.5 11:48:04 10° NNW 11:52:12 41° W 11:56:15 10° SSW
Cosmos 1727 Rocket 4.0 11:46:58 10° N 11:53:12 80° W 11:59:29 10° S
Cosmos 1400 Rocket 3.7 11:51:47 20° WSW 11:53:30 29° WNW 11:56:56 10° NNW
Cosmos 1626 2.2 11:52:23 10° NNW 11:55:58 51° W 11:59:32 10° S
